�N����,����,�~����,�C��,���x,�C��,����,���ϕ���,�ő�u�ԕ���,�ő厞����,���˗�,�I�_���x,�n�����x,�ő啗���N��,DTYPE
"18/02/24","00:10",0.0,1.8,79.8,1018.2,290.7,2.6,4.2,315.1,0.00,-1.3,5.2,"00:00:32",1
"18/02/24","00:20",0.0,1.6,80.7,1018.0,287.1,2.2,3.1,311.4,0.00,-1.3,5.2,"00:17:52",1
"18/02/24","00:30",0.0,1.5,81.8,1018.0,287.5,2.0,2.6,309.2,0.00,-1.2,5.1,"00:26:00",1
"18/02/24","00:40",0.0,1.2,81.4,1018.0,282.7,1.2,2.5,311.6,0.00,-1.6,5.1,"00:32:32",1
"18/02/24","00:50",0.0,0.7,83.1,1018.5,306.1,2.0,2.9,325.4,0.00,-1.8,5.1,"00:46:32",1
"18/02/24","01:00",0.0,0.3,84.7,1018.0,302.6,0.7,1.4,329.1,0.00,-1.9,4.8,"00:59:36",1
"18/02/24","01:10",0.0,0.1,86.4,1018.0,319.0,1.2,1.8,320.7,0.00,-1.9,4.8,"01:01:36",1
"18/02/24","01:20",0.0,0.0,87.2,1017.5,335.1,1.7,2.9,336.1,0.00,-1.8,4.9,"01:17:44",1
"18/02/24","01:30",0.0,-0.3,89.0,1017.8,293.6,0.7,1.8,318.5,0.00,-1.8,4.8,"01:20:56",1
"18/02/24","01:40",0.0,-0.3,89.5,1018.0,271.6,0.5,0.9,311.1,0.00,-1.8,4.7,"01:31:52",1
"18/02/24","01:50",0.0,-0.2,89.5,1017.8,309.0,1.2,2.5,332.2,0.00,-1.7,4.7,"01:48:00",1
"18/02/24","02:00",0.0,-0.2,89.5,1017.3,297.2,1.0,2.2,324.5,0.00,-1.7,4.6,"01:53:20",1
"18/02/24","02:10",0.0,-0.2,90.3,1017.5,313.6,0.5,0.9,263.8,0.00,-1.6,4.5,"02:01:28",1
"18/02/24","02:20",0.0,-0.5,89.7,1017.5,128.0,0.3,0.9,303.4,0.00,-1.9,4.3,"02:19:52",1
"18/02/24","02:30",0.0,-0.8,90.2,1017.8,329.0,1.1,1.8,342.3,0.00,-2.2,4.3,"02:27:04",1
"18/02/24","02:40",0.0,-1.2,91.1,1017.5,309.9,1.0,1.7,340.5,0.00,-2.4,4.3,"02:30:24",1
"18/02/24","02:50",0.0,-1.4,92.2,1017.5,316.3,1.0,1.8,310.0,0.00,-2.5,4.4,"02:45:52",1
"18/02/24","03:00",0.0,-1.3,92.9,1017.8,331.6,1.6,2.1,335.5,0.00,-2.3,4.2,"02:53:36",1
"18/02/24","03:10",0.0,-1.3,94.2,1017.5,287.9,1.1,1.8,316.6,0.00,-2.1,4.4,"03:00:02",1
"18/02/24","03:20",0.0,-1.2,94.0,1017.1,311.8,1.2,1.8,314.7,0.00,-2.0,4.2,"03:10:08",1
"18/02/24","03:30",0.0,-1.2,93.9,1017.5,295.0,1.5,2.0,309.8,0.00,-2.0,4.2,"03:27:52",1
"18/02/24","03:40",0.0,-1.2,94.4,1017.3,311.9,1.5,1.9,314.8,0.00,-1.9,4.1,"03:31:12",1
"18/02/24","03:50",0.0,-0.9,95.1,1017.1,287.1,1.3,2.2,268.6,0.00,-1.5,4.0,"03:48:00",1
"18/02/24","04:00",0.0,-0.7,94.2,1017.3,297.1,1.1,1.9,258.8,0.00,-1.5,4.0,"03:53:20",1
"18/02/24","04:10",0.0,-1.1,92.6,1017.1,354.6,0.8,1.9,329.0,0.00,-2.1,4.0,"04:08:40",1
"18/02/24","04:20",0.0,-1.6,93.8,1017.3,331.1,2.0,2.2,327.7,0.00,-2.4,3.8,"04:13:52",1
"18/02/24","04:30",0.0,-1.8,94.4,1017.3,306.5,1.7,2.0,327.9,0.00,-2.5,3.7,"04:22:08",1
"18/02/24","04:40",0.0,-1.9,95.2,1017.5,316.0,2.2,2.6,324.4,0.00,-2.5,3.8,"04:34:40",1
"18/02/24","04:50",0.0,-1.8,96.0,1017.3,304.7,2.0,2.2,312.4,0.00,-2.3,3.7,"04:49:12",1
"18/02/24","05:00",0.0,-1.6,95.9,1017.3,306.0,1.8,2.2,305.2,0.00,-2.1,3.8,"04:53:28",1
"18/02/24","05:10",0.0,-1.5,96.2,1017.3,301.6,1.7,1.9,315.6,0.00,-2.0,3.7,"05:01:04",1
"18/02/24","05:20",0.0,-1.6,95.6,1017.8,318.8,2.0,2.2,324.3,0.00,-2.2,3.7,"05:16:00",1
"18/02/24","05:30",0.0,-1.9,96.1,1017.5,321.7,2.5,2.8,322.3,0.00,-2.4,3.6,"05:28:48",1
"18/02/24","05:40",0.0,-2.0,96.4,1017.8,314.8,2.2,2.8,322.3,0.00,-2.5,3.6,"05:30:56",1
"18/02/24","05:50",0.0,-2.2,95.5,1017.8,314.3,2.1,2.5,324.6,0.00,-2.8,3.5,"05:42:56",1
"18/02/24","06:00",0.0,-2.0,96.9,1017.8,313.5,1.8,2.5,313.2,0.00,-2.4,3.3,"05:56:56",1
"18/02/24","06:10",0.0,-2.2,96.7,1017.5,311.2,2.2,2.6,320.2,0.00,-2.6,3.5,"06:06:08",1
"18/02/24","06:20",0.0,-2.4,96.7,1018.0,303.5,1.8,2.0,307.5,0.00,-2.8,3.6,"06:12:48",1
"18/02/24","06:30",0.0,-2.2,97.9,1017.8,296.7,2.0,2.8,314.0,0.00,-2.4,3.5,"06:26:08",1
"18/02/24","06:40",0.0,-2.2,96.7,1018.0,313.3,2.0,3.1,325.1,0.00,-2.6,3.6,"06:34:40",1
"18/02/24","06:50",0.0,-2.2,97.5,1018.2,321.0,2.3,3.2,324.2,0.00,-2.5,3.3,"06:46:16",1
"18/02/24","07:00",0.0,-1.9,97.9,1018.5,316.1,2.0,2.6,323.9,0.00,-2.1,3.4,"06:56:56",1
"18/02/24","07:10",0.0,-1.8,98.1,1018.7,304.1,1.7,2.1,319.8,0.00,-2.0,3.2,"07:06:24",1
"18/02/24","07:20",0.0,-1.4,97.0,1019.2,313.4,0.3,1.2,304.0,0.00,-1.8,3.4,"07:10:08",1
"18/02/24","07:30",0.0,-1.1,98.2,1019.2,302.2,0.8,1.2,326.7,0.01,-1.3,3.4,"07:23:52",1
"18/02/24","07:40",0.0,-0.3,97.3,1019.4,312.3,1.1,1.4,312.2,0.02,-0.6,3.3,"07:39:52",1
"18/02/24","07:50",0.0,0.1,97.2,1019.4,298.8,1.3,2.0,315.7,0.03,-0.3,3.6,"07:46:24",1
"18/02/24","08:00",0.0,0.5,96.2,1019.9,306.2,1.8,2.6,318.9,0.05,0.0,3.7,"07:56:32",1
"18/02/24","08:10",0.0,0.9,93.6,1020.1,267.0,0.8,1.7,309.5,0.06,0.0,3.6,"08:03:20",1
"18/02/24","08:20",0.0,1.9,91.7,1020.6,262.5,0.6,1.2,289.0,0.08,0.7,3.7,"08:19:02",1
"18/02/24","08:30",0.0,2.2,87.0,1020.6,232.6,0.5,1.1,278.0,0.11,0.3,3.8,"08:21:38",1
"18/02/24","08:40",0.0,2.8,84.5,1020.6,200.1,0.5,1.1,285.0,0.12,0.5,3.8,"08:31:40",1
"18/02/24","08:50",0.0,3.3,83.1,1021.3,165.2,0.6,1.7,136.4,0.15,0.7,4.1,"08:45:38",1
"18/02/24","09:00",0.0,3.6,80.9,1021.1,198.2,0.8,1.8,124.9,0.17,0.7,4.3,"08:58:42",1
"18/02/24","09:10",0.0,3.9,78.7,1021.5,198.3,0.7,1.4,131.3,0.19,0.6,4.6,"09:00:58",1
"18/02/24","09:20",0.0,4.4,78.0,1022.0,202.9,1.1,1.9,224.5,0.21,0.9,4.5,"09:17:24",1
"18/02/24","09:30",0.0,4.6,77.0,1021.8,159.2,0.8,2.0,100.4,0.23,1.0,4.7,"09:26:46",1
"18/02/24","09:40",0.0,5.4,73.0,1022.0,282.3,1.0,1.4,235.1,0.25,1.0,5.0,"09:32:46",1
"18/02/24","09:50",0.0,5.3,72.7,1022.3,159.9,1.2,3.4,217.7,0.27,0.8,5.0,"09:47:38",1
"18/02/24","10:00",0.0,5.9,72.7,1022.0,230.4,1.5,3.3,242.4,0.29,1.4,5.3,"09:58:48",1
"18/02/24","10:10",0.0,6.3,69.1,1021.8,200.2,1.1,2.6,138.3,0.31,1.1,5.6,"10:03:04",1
"18/02/24","10:20",0.0,6.5,67.9,1021.5,203.3,1.6,3.3,213.8,0.33,1.0,5.8,"10:19:28",1
"18/02/24","10:30",0.0,7.0,67.3,1021.3,202.0,1.6,2.9,188.6,0.35,1.4,5.9,"10:27:04",1
"18/02/24","10:40",0.0,7.4,65.2,1021.1,210.6,1.2,2.5,247.5,0.36,1.3,6.3,"10:30:02",1
"18/02/24","10:50",0.0,7.6,64.3,1021.1,214.1,1.5,3.1,196.8,0.38,1.3,6.4,"10:41:12",1
"18/02/24","11:00",0.0,8.5,63.1,1020.8,198.0,1.7,4.0,235.3,0.39,1.9,6.8,"10:58:32",1
"18/02/24","11:10",0.0,8.9,62.2,1020.8,166.7,1.7,3.2,125.5,0.40,2.1,6.8,"11:09:12",1
"18/02/24","11:20",0.0,9.4,59.6,1020.1,197.3,1.7,2.8,178.6,0.41,2.0,7.2,"11:12:16",1
"18/02/24","11:30",0.0,10.0,59.1,1020.4,212.2,1.6,3.6,124.7,0.42,2.4,7.4,"11:23:52",1
"18/02/24","11:40",0.0,10.4,57.3,1020.1,213.8,1.3,3.2,232.3,0.43,2.4,7.6,"11:32:00",1
"18/02/24","11:50",0.0,10.7,55.1,1020.1,212.1,1.3,2.6,200.7,0.43,2.1,7.9,"11:45:12",1
"18/02/24","12:00",0.0,11.8,53.8,1019.9,223.3,1.3,2.9,188.8,0.44,2.8,8.1,"11:57:20",1
"18/02/24","12:10",0.0,12.1,52.5,1019.7,208.9,1.3,2.8,237.6,0.45,2.7,8.3,"12:06:08",1
"18/02/24","12:20",0.0,12.6,48.0,1019.7,196.3,2.0,4.1,190.8,0.45,1.9,8.9,"12:19:12",1
"18/02/24","12:30",0.0,13.8,46.0,1019.4,214.2,1.3,3.3,223.5,0.45,2.4,9.0,"12:26:40",1
"18/02/24","12:40",0.0,13.4,41.1,1019.4,268.2,2.5,5.6,238.6,0.41,0.5,8.9,"12:38:48",1
"18/02/24","12:50",0.0,13.4,41.3,1019.0,255.7,3.0,7.2,235.1,0.29,0.6,9.3,"12:44:32",1
"18/02/24","13:00",0.0,13.5,41.7,1019.2,281.1,2.5,4.8,250.6,0.26,0.8,9.2,"12:51:12",1
"18/02/24","13:10",0.0,13.1,40.9,1019.0,296.0,3.1,8.7,334.7,0.19,0.2,9.4,"13:02:48",1
"18/02/24","13:20",0.0,13.8,40.1,1018.5,319.1,3.4,5.4,334.5,0.31,0.5,9.6,"13:16:48",1
"18/02/24","13:30",0.0,13.7,41.0,1018.7,294.2,2.8,5.9,321.5,0.26,0.7,9.4,"13:27:52",1
"18/02/24","13:40",0.0,13.4,41.8,1018.5,291.8,3.1,7.9,323.8,0.24,0.7,9.6,"13:39:52",1
"18/02/24","13:50",0.0,13.2,43.0,1018.7,297.5,2.8,7.0,323.6,0.24,0.9,9.5,"13:40:16",1
"18/02/24","14:00",0.0,13.5,42.5,1018.5,311.3,2.5,4.8,328.1,0.32,1.1,9.7,"13:54:16",1
"18/02/24","14:10",0.0,13.6,42.3,1018.5,317.2,3.0,6.7,346.5,0.28,1.1,9.7,"14:02:56",1
"18/02/24","14:20",0.0,13.1,42.4,1018.0,289.7,2.5,6.4,327.7,0.22,0.7,9.7,"14:15:36",1
"18/02/24","14:30",0.0,13.6,42.6,1018.0,292.9,2.3,4.2,260.4,0.23,1.2,9.7,"14:24:48",1
"18/02/24","14:40",0.0,13.1,42.8,1017.8,289.2,2.6,5.5,331.4,0.25,0.8,9.8,"14:38:24",1
"18/02/24","14:50",0.0,13.7,42.5,1018.0,290.2,2.8,5.2,317.7,0.29,1.2,9.8,"14:41:36",1
"18/02/24","15:00",0.0,13.4,43.1,1018.5,288.1,2.8,4.7,334.8,0.28,1.2,9.7,"14:59:36",1
"18/02/24","15:10",0.0,13.5,45.2,1018.0,321.2,3.1,5.8,343.6,0.23,1.9,9.8,"15:04:48",1
"18/02/24","15:20",0.0,12.3,49.2,1017.8,343.7,3.2,6.2,325.4,0.14,2.0,9.8,"15:19:14",1
"18/02/24","15:30",0.0,11.8,52.3,1017.8,337.4,3.9,7.0,338.7,0.11,2.4,9.7,"15:28:16",1
"18/02/24","15:40",0.0,11.9,53.5,1018.2,341.2,3.9,7.0,339.6,0.13,2.8,9.8,"15:33:28",1
"18/02/24","15:50",0.0,11.8,55.1,1018.2,337.3,3.2,5.6,325.9,0.10,3.1,9.6,"15:43:52",1
"18/02/24","16:00",0.0,11.8,55.8,1018.5,336.8,3.0,7.9,334.9,0.11,3.3,9.7,"15:58:40",1
"18/02/24","16:10",0.0,11.6,55.7,1018.5,331.1,3.6,6.7,328.0,0.06,3.1,9.7,"16:02:40",1
"18/02/24","16:20",0.0,11.1,58.2,1018.7,341.1,3.6,6.5,334.7,0.02,3.2,9.7,"16:13:28",1
"18/02/24","16:30",0.0,10.8,58.7,1018.5,337.6,3.0,5.7,324.9,0.00,3.1,9.4,"16:20:24",1
"18/02/24","16:40",0.0,10.8,59.3,1018.7,322.5,2.5,3.9,312.3,0.00,3.2,9.4,"16:38:16",1
"18/02/24","16:50",0.0,10.7,59.6,1019.0,300.2,3.6,6.2,338.9,0.00,3.2,9.4,"16:46:32",1
"18/02/24","17:00",0.0,10.5,60.4,1018.7,296.1,3.2,7.4,317.8,0.00,3.2,9.3,"16:58:48",1
"18/02/24","17:10",0.0,10.3,61.6,1019.4,311.4,3.6,6.6,316.4,0.00,3.3,9.1,"17:06:08",1
"18/02/24","17:20",0.0,9.8,63.9,1019.2,338.6,3.9,7.9,346.8,0.00,3.3,9.1,"17:14:56",1
"18/02/24","17:30",0.0,9.3,67.0,1019.2,339.4,4.4,9.4,330.9,0.00,3.5,9.0,"17:23:38",1
"18/02/24","17:40",0.0,9.1,68.7,1019.2,341.5,4.0,6.2,343.9,0.00,3.7,8.9,"17:38:08",1
"18/02/24","17:50",0.0,8.7,70.4,1019.7,338.8,3.5,5.9,330.6,0.00,3.7,8.9,"17:48:24",1
"18/02/24","18:00",0.0,8.4,71.8,1020.1,336.5,3.4,6.5,331.0,0.00,3.7,8.5,"17:52:48",1
"18/02/24","18:10",0.0,8.2,72.6,1020.1,346.4,3.1,6.7,338.0,0.00,3.6,8.6,"18:07:28",1
"18/02/24","18:20",0.0,8.0,73.3,1020.4,346.5,3.4,6.8,316.5,0.00,3.6,8.3,"18:19:20",1
"18/02/24","18:30",0.0,7.7,74.3,1020.1,337.6,4.4,8.3,339.7,0.00,3.5,8.4,"18:22:48",1
"18/02/24","18:40",0.0,7.5,75.0,1020.6,341.6,4.5,8.7,338.4,0.00,3.4,8.2,"18:38:56",1
"18/02/24","18:50",0.0,7.3,75.7,1020.4,333.9,5.1,9.6,331.0,0.00,3.3,8.2,"18:49:04",1
"18/02/24","19:00",0.0,7.1,76.3,1020.4,329.4,5.7,9.5,340.9,0.00,3.3,8.0,"18:57:04",1
"18/02/24","19:10",0.0,7.0,76.6,1020.4,329.8,6.5,10.0,336.9,0.00,3.2,7.7,"19:04:32",1
"18/02/24","19:20",0.0,6.9,76.7,1020.4,330.2,6.6,9.6,338.7,0.00,3.1,7.9,"19:11:36",1
"18/02/24","19:30",0.0,6.9,76.7,1020.8,321.7,5.7,8.7,326.3,0.00,3.1,7.7,"19:22:32",1
"18/02/24","19:40",0.0,6.8,76.9,1021.3,329.8,5.4,10.0,331.7,0.00,3.1,7.8,"19:30:02",1
"18/02/24","19:50",0.0,6.7,77.0,1021.1,330.1,4.7,7.5,328.9,0.00,3.0,7.7,"19:40:08",1
"18/02/24","20:00",0.0,6.5,77.2,1021.1,334.5,3.9,7.7,328.0,0.00,2.8,7.4,"19:51:44",1
"18/02/24","20:10",0.0,6.4,77.3,1021.3,329.3,4.9,8.8,343.0,0.00,2.8,7.6,"20:06:38",1
"18/02/24","20:20",0.0,6.3,77.0,1021.3,329.2,4.5,8.1,324.0,0.00,2.6,7.6,"20:10:24",1
"18/02/24","20:30",0.0,6.2,76.9,1021.1,328.2,4.7,7.5,337.9,0.00,2.5,7.3,"20:29:28",1
"18/02/24","20:40",0.0,6.1,76.8,1021.1,322.1,3.6,6.5,336.7,0.00,2.4,7.1,"20:30:02",1
"18/02/24","20:50",0.0,6.0,77.3,1021.3,326.4,3.6,8.3,330.0,0.00,2.4,7.2,"20:40:16",1
"18/02/24","21:00",0.0,5.9,77.0,1021.5,324.8,3.4,6.5,318.6,0.00,2.2,7.4,"20:57:12",1
"18/02/24","21:10",0.0,5.9,77.2,1021.1,336.5,2.8,5.1,316.9,0.00,2.3,7.1,"21:05:04",1
"18/02/24","21:20",0.0,5.7,77.8,1021.3,333.8,2.5,4.7,338.8,0.00,2.2,7.0,"21:18:00",1
"18/02/24","21:30",0.0,5.7,77.7,1021.3,332.3,3.4,5.4,328.4,0.00,2.2,7.0,"21:29:04",1
"18/02/24","21:40",0.0,5.6,77.5,1021.3,332.9,3.2,5.7,334.8,0.00,2.0,7.0,"21:33:12",1
"18/02/24","21:50",0.0,5.5,77.9,1021.1,327.7,2.6,5.0,325.8,0.00,2.0,7.1,"21:40:08",1
"18/02/24","22:00",0.0,5.4,77.4,1021.1,329.1,3.2,7.5,331.7,0.00,1.8,6.8,"21:51:36",1
"18/02/24","22:10",0.0,5.2,79.4,1021.1,338.1,2.1,4.7,345.6,0.00,2.0,7.0,"22:07:52",1
"18/02/24","22:20",0.0,5.5,78.6,1020.8,331.6,2.1,4.5,336.5,0.00,2.1,6.9,"22:19:36",1
"18/02/24","22:30",0.0,5.4,78.0,1021.1,321.7,2.5,4.9,335.9,0.00,1.9,6.8,"22:25:44",1
"18/02/24","22:40",0.0,5.5,79.1,1021.1,328.2,2.6,4.8,312.9,0.00,2.2,6.8,"22:33:36",1
"18/02/24","22:50",0.0,5.7,78.3,1021.3,315.6,3.6,5.8,315.9,0.00,2.3,6.6,"22:48:00",1
"18/02/24","23:00",0.0,5.7,77.9,1021.1,325.6,3.6,6.6,336.7,0.00,2.2,6.4,"22:59:36",1
"18/02/24","23:10",0.0,5.6,77.6,1021.3,319.7,3.9,6.0,334.2,0.00,2.0,6.8,"23:04:48",1
"18/02/24","23:20",0.0,5.7,77.4,1021.3,311.8,4.0,6.5,315.7,0.00,2.1,6.7,"23:15:12",1
"18/02/24","23:30",0.0,5.7,76.8,1021.3,318.0,3.9,7.7,321.4,0.00,2.0,6.7,"23:25:20",1
"18/02/24","23:40",0.0,5.7,76.9,1021.5,313.5,4.0,5.9,338.1,0.00,2.0,6.7,"23:35:12",1
"18/02/24","23:50",0.0,5.5,77.2,1021.1,320.3,4.0,6.0,334.9,0.00,1.9,6.5,"23:46:24",1
"18/02/24","24:00",0.0,5.4,77.6,1021.3,319.1,3.4,5.4,320.3,0.00,1.8,6.4,"23:58:24",1
